Regional Weather Roundup
Issued by NWS

Home | Current Version | Previous Version | Text Only | Print | Product List | Glossary On
Versions: 1 2 3 4 5 6 7 8 9 10 11 12 13 14 15 16 17 18 19 20 21 22 23 24 25 26 27 28 29 30 31 32 33 34 35 36 37 38 39 40 41 42 43 44 45 46 47 48 49 50
000
ASUS44 KMEG 261710
RWRTN
TENNESSEE HOURLY STATE WEATHER ROUNDUP
NATIONAL WEATHER SERVICE MEMPHIS TN
1200 PM CDT THU MAY 26 2016

TNZ002-004-019-021-049-052-054-088>092-261800-
WEST TENNESSEE

CITY           SKY/WX    TMP DP  RH WIND       PRES   REMARKS
MEMPHIS INTL   PTSUNNY   84  72  65 S8        30.05F
NWS MEMPHIS      N/A     85 N/A N/A MISG        N/A
JACKSON        MOSUNNY   85  72  65 SW8       30.06F HX  91
DYERSBURG      PTSUNNY   84  73  70 SW9       30.03F HX  91
UNION CITY     PTSUNNY   82  73  74 S7        30.02F
PARIS          MOSUNNY   82  72  69 SW10      30.06F
LEXINGTON      MOSUNNY   86  73  66 SW8       30.06F HX  93
$$

TNZ008-025-027-028-033-062-065-066-261800-
NORTH MIDDLE TENNESSEE

CITY           SKY/WX    TMP DP  RH WIND       PRES   REMARKS
NASHVILLE      PTSUNNY   84  66  54 SW6       30.10F
CLARKSVILLE    PTSUNNY   82  73  74 SW8       30.06F
SMYRNA         SUNNY     85  66  52 SW9       30.12F
COOKEVILLE     MOSUNNY   82  68  61 SW7       30.14F
CROSSVILLE     MOSUNNY   79  63  57 VRB7      30.20F
$$

TNZ061-075-076-078-094-096-097-261800-
SOUTH MIDDLE TENNESSEE

CITY           SKY/WX    TMP DP  RH WIND       PRES   REMARKS
FAYETTEVILLE   MOSUNNY   84  61  45 S9        30.14F
TULLAHOMA      SUNNY     84  59  42 SW13      30.15F
WINCHESTER     MOSUNNY   84  63  48 S8        30.14F
MCMINNVILLE    SUNNY     84  64  51 SW10      30.15F
COLUMBIA       SUNNY     86  73  66 SW12      30.09F HX  93
SHELBYVILLE    SUNNY     88  63  42 S10       30.13F
$$

TNZ017-018-042-046-047-261800-
NORTHEAST TENNESSEE

CITY           SKY/WX    TMP DP  RH WIND       PRES   REMARKS
TRI CITIES     CLOUDY    73  62  68 SW8       30.24S
$$

TNZ012-013-036-069-073-074-261800-
CENTRAL EAST TENNESSEE

CITY           SKY/WX    TMP DP  RH WIND       PRES   REMARKS
KNOXVILLE      PTSUNNY   71  65  81 E3        30.20F
OAK RIDGE      MOSUNNY   76  64  66 VRB5      30.21F
GATLINBURG     CLOUDY    68  64  88 VRB3      30.22F
$$

TNZ083-085-099-261800-
SOUTHEAST TENNESSEE

CITY           SKY/WX    TMP DP  RH WIND       PRES   REMARKS
CHATTANOOGA    MOSUNNY   86  61  42 SW10      30.15F
$$

SKY/WX REPORTED AS FAIR MEANS FEW OR NO CLOUDS BELOW
12 THOUSAND FEET.




USA.gov is the U.S. government's official web portal to all federal, state and local government web resources and services.